Time,TemperatureF,DewpointF,PressureIn,WindDirection,WindDirectionDegrees,WindSpeedMPH,WindSpeedGustMPH,Humidity,HourlyPrecipIn,Conditions,Clouds,dailyrainin,SoftwareType,DateUTC
2013-04-22 00:04:00,49.5,2.1,30.47,North,0,0.0,0.0,14,0.00,CLR,OVC,0.00,WeatherDisplay:10.37,2013-04-22 05:04:00,
2013-04-22 00:09:00,49.3,2.0,30.47,North,0,0.0,0.0,14,0.00,CLR,OVC,0.00,WeatherDisplay:10.37,2013-04-22 05:09:00,
2013-04-22 00:14:00,49.1,1.9,30.47,North,0,0.0,0.0,14,0.00,CLR,OVC,0.00,WeatherDisplay:10.37,2013-04-22 05:14:00,
2013-04-22 00:19:00,49.1,1.9,30.47,North,0,0.0,0.0,14,0.00,CLR,OVC,0.00,WeatherDisplay:10.37,2013-04-22 05:19:00,
2013-04-22 00:24:00,48.9,1.7,30.47,North,0,0.0,0.0,14,0.00,CLR,OVC,0.00,WeatherDisplay:10.37,2013-04-22 05:24:00,
2013-04-22 00:29:00,48.9,1.7,30.47,North,0,0.0,0.0,14,0.00,CLR,OVC,0.00,WeatherDisplay:10.37,2013-04-22 05:29:00,
2013-04-22 00:34:00,48.9,1.7,30.47,North,0,0.0,0.0,14,0.00,CLR,OVC,0.00,WeatherDisplay:10.37,2013-04-22 05:34:00,
2013-04-22 00:39:00,48.7,1.6,30.47,North,0,0.0,0.0,14,0.00,CLR,OVC,0.00,WeatherDisplay:10.37,2013-04-22 05:39:00,
2013-04-22 00:44:00,48.7,1.6,30.47,North,0,0.0,0.0,14,0.00,CLR,OVC,0.00,WeatherDisplay:10.37,2013-04-22 05:44:00,
2013-04-22 00:49:00,48.7,1.6,30.47,North,0,0.0,0.0,14,0.00,CLR,OVC,0.00,WeatherDisplay:10.37,2013-04-22 05:49:00,
2013-04-22 00:54:00,48.7,1.6,30.47,North,0,0.0,0.0,14,0.00,CLR,OVC,0.00,WeatherDisplay:10.37,2013-04-22 05:54:00,
2013-04-22 00:59:00,48.7,1.6,30.47,North,0,0.0,0.0,14,0.00,CLR,OVC,0.00,WeatherDisplay:10.37,2013-04-22 05:59:00,
2013-04-22 01:04:00,48.7,1.6,30.47,North,0,0.0,0.0,14,0.00,CLR,OVC,0.00,WeatherDisplay:10.37,2013-04-22 06:04:00,
2013-04-22 01:09:00,48.7,1.6,30.47,North,0,0.0,0.0,14,0.00,OVC,,0.00,WeatherDisplay:10.37,2013-04-22 06:09:00,
2013-04-22 01:14:00,48.9,1.7,30.47,North,0,0.0,0.0,14,0.00,OVC,,0.00,WeatherDisplay:10.37,2013-04-22 06:14:00,
2013-04-22 01:19:00,48.9,1.7,30.47,North,0,0.0,0.0,14,0.00,OVC,,0.00,WeatherDisplay:10.37,2013-04-22 06:19:00,
2013-04-22 01:24:00,48.9,1.7,30.47,North,0,0.0,0.0,14,0.00,OVC,,0.00,WeatherDisplay:10.37,2013-04-22 06:24:00,
2013-04-22 01:29:00,48.9,1.7,30.47,North,0,0.0,0.0,14,0.00,OVC,,0.00,WeatherDisplay:10.37,2013-04-22 06:29:00,
2013-04-22 01:34:00,48.9,1.7,30.47,North,0,0.0,0.0,14,0.00,OVC,,0.00,WeatherDisplay:10.37,2013-04-22 06:34:00,
2013-04-22 01:39:00,48.9,1.7,30.47,North,0,0.0,0.0,14,0.00,OVC,,0.00,WeatherDisplay:10.37,2013-04-22 06:39:00,
2013-04-22 01:44:00,48.9,1.7,30.47,North,0,0.0,0.0,14,0.00,OVC,,0.00,WeatherDisplay:10.37,2013-04-22 06:44:00,
2013-04-22 01:49:00,48.9,1.7,30.47,North,0,0.0,0.0,14,0.00,OVC,,0.00,WeatherDisplay:10.37,2013-04-22 06:49:00,
2013-04-22 01:54:00,48.9,1.7,30.47,North,0,0.0,0.0,14,0.00,OVC,,0.00,WeatherDisplay:10.37,2013-04-22 06:54:00,
2013-04-22 01:59:00,48.9,1.7,30.47,North,0,0.0,0.0,14,0.00,OVC,,0.00,WeatherDisplay:10.37,2013-04-22 06:59:00,
2013-04-22 02:04:00,48.9,1.7,30.47,North,0,0.0,0.0,14,0.00,OVC,,0.00,WeatherDisplay:10.37,2013-04-22 07:04:00,
2013-04-22 02:09:00,48.9,1.7,30.47,North,0,0.0,0.0,14,0.00,OVC,,0.00,WeatherDisplay:10.37,2013-04-22 07:09:00,
2013-04-22 02:14:00,48.9,1.7,30.47,North,0,0.0,0.0,14,0.00,OVC,,0.00,WeatherDisplay:10.37,2013-04-22 07:14:00,
2013-04-22 02:19:00,48.9,1.7,30.47,North,0,0.0,0.0,14,0.00,OVC,,0.00,WeatherDisplay:10.37,2013-04-22 07:19:00,
2013-04-22 02:24:00,48.9,1.7,30.47,North,0,0.0,0.0,14,0.00,OVC,,0.00,WeatherDisplay:10.37,2013-04-22 07:24:00,
2013-04-22 02:29:00,48.9,1.7,30.44,North,0,0.0,0.0,14,0.00,OVC,,0.00,WeatherDisplay:10.37,2013-04-22 07:29:00,
2013-04-22 02:34:00,48.9,1.7,30.44,North,0,0.0,0.0,14,0.00,OVC,,0.00,WeatherDisplay:10.37,2013-04-22 07:34:00,
2013-04-22 02:39:00,48.9,1.7,30.44,North,0,0.0,0.0,14,0.00,OVC,,0.00,WeatherDisplay:10.37,2013-04-22 07:39:00,
2013-04-22 02:44:00,49.1,1.9,30.47,North,0,0.0,0.0,14,0.00,OVC,,0.00,WeatherDisplay:10.37,2013-04-22 07:44:00,
2013-04-22 02:49:00,49.1,1.9,30.47,North,0,0.0,0.0,14,0.00,OVC,,0.00,WeatherDisplay:10.37,2013-04-22 07:49:00,
2013-04-22 02:54:00,49.1,1.9,30.47,North,0,0.0,0.0,14,0.00,OVC,,0.00,WeatherDisplay:10.37,2013-04-22 07:54:00,
2013-04-22 02:59:00,49.1,1.9,30.44,North,0,0.0,0.0,14,0.00,OVC,,0.00,WeatherDisplay:10.37,2013-04-22 07:59:00,
2013-04-22 03:04:00,48.9,1.7,30.44,North,0,0.0,0.0,14,0.00,OVC,,0.00,WeatherDisplay:10.37,2013-04-22 08:04:00,
2013-04-22 03:09:00,48.9,1.7,30.44,North,0,0.0,0.0,14,0.00,OVC,,0.00,WeatherDisplay:10.37,2013-04-22 08:09:00,
2013-04-22 03:14:00,48.7,1.6,30.44,North,0,0.0,0.0,14,0.00,OVC,,0.00,WeatherDisplay:10.37,2013-04-22 08:14:00,
2013-04-22 03:20:00,48.7,1.6,30.44,North,0,0.0,0.0,14,0.00,OVC,,0.00,WeatherDisplay:10.37,2013-04-22 08:20:00,
2013-04-22 03:25:00,48.7,1.6,30.44,North,0,0.0,0.0,14,0.00,OVC,,0.00,WeatherDisplay:10.37,2013-04-22 08:25:00,
2013-04-22 03:30:00,48.7,1.6,30.44,North,0,0.0,0.0,14,0.00,OVC,,0.00,WeatherDisplay:10.37,2013-04-22 08:30:00,
2013-04-22 03:35:00,48.7,1.6,30.44,North,0,0.0,0.0,14,0.00,OVC,,0.00,WeatherDisplay:10.37,2013-04-22 08:35:00,
2013-04-22 03:40:00,48.7,1.6,30.44,North,0,0.0,0.0,14,0.00,OVC,,0.00,WeatherDisplay:10.37,2013-04-22 08:40:00,
2013-04-22 03:45:00,48.7,1.6,30.44,North,0,0.0,0.0,14,0.00,OVC,,0.00,WeatherDisplay:10.37,2013-04-22 08:45:00,
2013-04-22 03:50:00,48.7,1.6,30.44,North,0,0.0,0.0,14,0.00,OVC,,0.00,WeatherDisplay:10.37,2013-04-22 08:50:00,
2013-04-22 03:55:00,48.7,1.6,30.44,North,0,0.0,0.0,14,0.00,OVC,,0.00,WeatherDisplay:10.37,2013-04-22 08:55:00,
2013-04-22 04:00:00,48.7,1.6,30.44,North,0,0.0,0.0,14,0.00,OVC,,0.00,WeatherDisplay:10.37,2013-04-22 09:00:00,
2013-04-22 04:05:00,48.7,1.6,30.44,North,0,0.0,0.0,14,0.00,OVC,,0.00,WeatherDisplay:10.37,2013-04-22 09:05:00,
2013-04-22 04:10:00,48.7,1.6,30.44,North,0,0.0,0.0,14,0.00,OVC,,0.00,WeatherDisplay:10.37,2013-04-22 09:10:00,
2013-04-22 04:15:00,48.7,1.6,30.44,North,0,0.0,0.0,14,0.00,OVC,,0.00,WeatherDisplay:10.37,2013-04-22 09:15:00,
2013-04-22 04:20:00,48.6,1.4,30.44,North,0,0.0,0.0,14,0.00,OVC,,0.00,WeatherDisplay:10.37,2013-04-22 09:20:00,
2013-04-22 04:25:00,48.6,1.4,30.44,North,0,0.0,0.0,14,0.00,OVC,,0.00,WeatherDisplay:10.37,2013-04-22 09:25:00,
2013-04-22 04:30:00,48.4,1.3,30.44,North,0,0.0,0.0,14,0.00,OVC,,0.00,WeatherDisplay:10.37,2013-04-22 09:30:00,
2013-04-22 04:35:00,48.2,1.1,30.44,North,0,0.0,0.0,14,0.00,OVC,,0.00,WeatherDisplay:10.37,2013-04-22 09:35:00,
2013-04-22 04:40:00,48.2,1.1,30.44,North,0,0.0,0.0,14,0.00,OVC,,0.00,WeatherDisplay:10.37,2013-04-22 09:40:00,
2013-04-22 04:45:00,47.8,0.8,30.41,North,0,0.0,0.0,14,0.00,OVC,,0.00,WeatherDisplay:10.37,2013-04-22 09:45:00,
2013-04-22 04:50:00,47.7,0.7,30.41,North,0,0.0,0.0,14,0.00,OVC,,0.00,WeatherDisplay:10.37,2013-04-22 09:50:00,
2013-04-22 04:55:00,47.5,0.6,30.41,North,0,0.0,0.0,14,0.00,OVC,,0.00,WeatherDisplay:10.37,2013-04-22 09:55:00,
2013-04-22 05:00:00,47.3,0.4,30.44,North,0,0.0,0.0,14,0.00,OVC,,0.00,WeatherDisplay:10.37,2013-04-22 10:00:00,
2013-04-22 05:05:00,47.3,0.4,30.44,North,0,0.0,0.0,14,0.00,OVC,,0.00,WeatherDisplay:10.37,2013-04-22 10:05:00,
2013-04-22 05:10:00,47.3,0.4,30.44,North,0,0.0,0.0,14,0.00,OVC,,0.00,WeatherDisplay:10.37,2013-04-22 10:10:00,
2013-04-22 05:15:00,47.3,0.4,30.44,North,0,0.0,0.0,14,0.00,OVC,,0.00,WeatherDisplay:10.37,2013-04-22 10:15:00,
2013-04-22 05:20:00,47.1,0.3,30.44,North,0,0.0,0.0,14,0.00,OVC,,0.00,WeatherDisplay:10.37,2013-04-22 10:20:00,
2013-04-22 05:25:00,47.1,0.3,30.44,North,0,0.0,0.0,14,0.00,BKN,OVC,0.00,WeatherDisplay:10.37,2013-04-22 10:25:00,
2013-04-22 05:30:00,46.9,0.1,30.44,North,0,0.0,0.0,14,0.00,BKN,OVC,0.00,WeatherDisplay:10.37,2013-04-22 10:30:00,
2013-04-22 05:35:00,46.9,0.1,30.44,North,0,0.0,0.0,14,0.00,BKN,OVC,0.00,WeatherDisplay:10.37,2013-04-22 10:35:00,
2013-04-22 05:40:00,46.8,0.0,30.44,North,0,0.0,0.0,14,0.00,BKN,OVC,0.00,WeatherDisplay:10.37,2013-04-22 10:40:00,
2013-04-22 05:45:00,46.8,0.0,30.44,North,0,0.0,0.0,14,0.00,BKN,OVC,0.00,WeatherDisplay:10.37,2013-04-22 10:45:00,
2013-04-22 05:50:00,46.9,0.1,30.44,North,0,0.0,0.0,14,0.00,BKN,OVC,0.00,WeatherDisplay:10.37,2013-04-22 10:50:00,
2013-04-22 05:55:00,46.9,0.1,30.44,North,0,0.0,0.0,14,0.00,BKN,OVC,0.00,WeatherDisplay:10.37,2013-04-22 10:55:00,
2013-04-22 06:00:00,46.9,0.1,30.44,North,0,0.0,0.0,14,0.00,BKN,OVC,0.00,WeatherDisplay:10.37,2013-04-22 11:00:00,
2013-04-22 06:05:00,46.9,0.1,30.44,North,0,0.0,0.0,14,0.00,BKN,OVC,0.00,WeatherDisplay:10.37,2013-04-22 11:05:00,
2013-04-22 06:10:00,47.1,0.3,30.44,North,0,0.0,0.0,14,0.00,BKN,OVC,0.00,WeatherDisplay:10.37,2013-04-22 11:10:00,
2013-04-22 06:15:00,47.1,0.3,30.44,North,0,0.0,0.0,14,0.00,BKN,OVC,0.00,WeatherDisplay:10.37,2013-04-22 11:15:00,
2013-04-22 06:20:00,47.1,0.3,30.44,North,0,0.0,0.0,14,0.00,BKN,OVC,0.00,WeatherDisplay:10.37,2013-04-22 11:20:00,
2013-04-22 06:25:00,47.1,0.3,30.44,North,0,0.0,0.0,14,0.00,BKN,OVC,0.00,WeatherDisplay:10.37,2013-04-22 11:25:00,
2013-04-22 06:30:00,47.1,0.3,30.44,North,0,0.0,0.0,14,0.00,BKN,OVC,0.00,WeatherDisplay:10.37,2013-04-22 11:30:00,
2013-04-22 06:35:00,47.1,0.3,30.44,North,0,0.0,0.0,14,0.00,BKN,OVC,0.00,WeatherDisplay:10.37,2013-04-22 11:35:00,
2013-04-22 06:40:00,47.1,0.3,30.44,North,0,0.0,0.0,14,0.00,BKN,OVC,0.00,WeatherDisplay:10.37,2013-04-22 11:40:00,
2013-04-22 06:45:00,47.1,0.3,30.44,North,0,0.0,0.0,14,0.00,BKN,OVC,0.00,WeatherDisplay:10.37,2013-04-22 11:45:00,
2013-04-22 06:50:00,47.1,0.3,30.44,North,0,0.0,0.0,14,0.00,BKN,OVC,0.00,WeatherDisplay:10.37,2013-04-22 11:50:00,
2013-04-22 06:55:00,47.3,0.4,30.44,North,0,0.0,0.0,14,0.00,BKN,OVC,0.00,WeatherDisplay:10.37,2013-04-22 11:55:00,
2013-04-22 07:00:00,47.5,0.6,30.44,North,0,0.0,0.0,14,0.00,BKN,OVC,0.00,WeatherDisplay:10.37,2013-04-22 12:00:00,
2013-04-22 07:05:00,47.5,0.6,30.44,North,0,0.0,0.0,14,0.00,BKN,OVC,0.00,WeatherDisplay:10.37,2013-04-22 12:05:00,
2013-04-22 07:10:00,47.7,0.7,30.44,North,0,0.0,0.0,14,0.00,OVC,,0.00,WeatherDisplay:10.37,2013-04-22 12:10:00,
2013-04-22 07:15:00,47.7,0.7,30.44,North,0,0.0,0.0,14,0.00,OVC,,0.00,WeatherDisplay:10.37,2013-04-22 12:15:00,
2013-04-22 07:20:00,47.8,0.8,30.44,North,0,0.0,0.0,14,0.00,OVC,,0.00,WeatherDisplay:10.37,2013-04-22 12:20:00,
2013-04-22 07:25:00,47.8,0.8,30.44,North,0,0.0,0.0,14,0.00,OVC,,0.00,WeatherDisplay:10.37,2013-04-22 12:25:00,
2013-04-22 07:30:00,48.0,1.0,30.44,North,0,0.0,0.0,14,0.00,OVC,,0.00,WeatherDisplay:10.37,2013-04-22 12:30:00,
2013-04-22 07:35:00,48.0,1.0,30.44,North,0,0.0,0.0,14,0.00,OVC,,0.00,WeatherDisplay:10.37,2013-04-22 12:35:00,
2013-04-22 07:40:00,48.0,1.0,30.44,North,0,0.0,0.0,14,0.00,OVC,,0.00,WeatherDisplay:10.37,2013-04-22 12:40:00,
2013-04-22 07:45:00,48.0,1.0,30.44,North,0,0.0,0.0,14,0.00,OVC,,0.00,WeatherDisplay:10.37,2013-04-22 12:45:00,
2013-04-22 07:50:00,48.2,1.1,30.44,North,0,0.0,0.0,14,0.00,OVC,,0.00,WeatherDisplay:10.37,2013-04-22 12:50:00,
2013-04-22 07:55:00,48.7,1.6,30.44,North,0,0.0,0.0,14,0.00,OVC,,0.00,WeatherDisplay:10.37,2013-04-22 12:55:00,
2013-04-22 08:00:00,49.1,1.9,30.44,North,0,0.0,0.0,14,0.00,OVC,,0.00,WeatherDisplay:10.37,2013-04-22 13:00:00,
2013-04-22 08:05:00,49.6,2.3,30.44,North,0,0.0,0.0,14,0.00,OVC,,0.00,WeatherDisplay:10.37,2013-04-22 13:05:00,
2013-04-22 08:10:00,50.2,2.7,30.44,North,0,0.0,0.0,14,0.00,OVC,,0.00,WeatherDisplay:10.37,2013-04-22 13:10:00,
2013-04-22 08:15:00,50.7,3.2,30.47,North,0,0.0,0.0,14,0.00,OVC,,0.00,WeatherDisplay:10.37,2013-04-22 13:15:00,
2013-04-22 08:20:00,51.1,3.4,30.47,North,0,0.0,0.0,14,0.00,OVC,,0.00,WeatherDisplay:10.37,2013-04-22 13:20:00,
2013-04-22 08:25:00,51.4,3.7,30.47,North,0,0.0,0.0,14,0.00,OVC,,0.00,WeatherDisplay:10.37,2013-04-22 13:25:00,
2013-04-22 08:30:00,51.6,3.9,30.44,North,0,0.0,0.0,14,0.00,OVC,,0.00,WeatherDisplay:10.37,2013-04-22 13:30:00,
2013-04-22 08:35:00,51.6,3.9,30.44,North,0,0.0,0.0,14,0.00,OVC,,0.00,WeatherDisplay:10.37,2013-04-22 13:35:00,
2013-04-22 08:40:00,51.6,3.9,30.44,North,0,0.0,0.0,14,0.00,OVC,,0.00,WeatherDisplay:10.37,2013-04-22 13:40:00,
2013-04-22 08:45:00,51.6,3.9,30.44,North,0,0.0,0.0,14,0.00,OVC,,0.00,WeatherDisplay:10.37,2013-04-22 13:45:00,
2013-04-22 08:50:00,51.8,2.4,30.44,North,0,0.0,0.0,13,0.00,OVC,,0.00,WeatherDisplay:10.37,2013-04-22 13:50:00,
2013-04-22 08:55:00,52.2,2.7,30.44,North,0,0.0,0.0,13,0.00,OVC,,0.00,WeatherDisplay:10.37,2013-04-22 13:55:00,
2013-04-22 09:00:00,52.7,3.1,30.44,North,0,0.0,0.0,13,0.00,OVC,,0.00,WeatherDisplay:10.37,2013-04-22 14:00:00,
2013-04-22 09:05:00,53.1,3.4,30.44,North,0,0.0,0.0,13,0.00,OVC,,0.00,WeatherDisplay:10.37,2013-04-22 14:05:00,
2013-04-22 09:10:00,53.6,3.8,30.44,North,0,0.0,0.0,13,0.00,SCT,OVC,0.00,WeatherDisplay:10.37,2013-04-22 14:10:00,
2013-04-22 09:15:00,53.8,4.0,30.44,North,0,0.0,0.0,13,0.00,SCT,OVC,0.00,WeatherDisplay:10.37,2013-04-22 14:15:00,
2013-04-22 09:20:00,54.1,4.3,30.44,North,0,0.0,0.0,13,0.00,SCT,OVC,0.00,WeatherDisplay:10.37,2013-04-22 14:20:00,
2013-04-22 09:25:00,54.5,4.6,30.44,North,0,0.0,0.0,13,0.00,SCT,OVC,0.00,WeatherDisplay:10.37,2013-04-22 14:25:00,
2013-04-22 09:30:00,55.2,5.1,30.44,North,0,0.0,0.0,13,0.00,SCT,OVC,0.00,WeatherDisplay:10.37,2013-04-22 14:30:00,
2013-04-22 09:35:00,55.9,4.0,30.44,North,0,0.0,0.0,12,0.00,SCT,OVC,0.00,WeatherDisplay:10.37,2013-04-22 14:35:00,
2013-04-22 09:40:00,56.7,4.5,30.44,North,0,0.0,0.0,12,0.00,SCT,OVC,0.00,WeatherDisplay:10.37,2013-04-22 14:40:00,
2013-04-22 09:45:00,57.7,5.4,30.44,North,0,0.0,0.0,12,0.00,SCT,OVC,0.00,WeatherDisplay:10.37,2013-04-22 14:45:00,
2013-04-22 09:50:00,58.6,6.1,30.44,North,0,0.0,0.0,12,0.00,SCT,OVC,0.00,WeatherDisplay:10.37,2013-04-22 14:50:00,
2013-04-22 09:55:00,59.2,6.5,30.44,North,0,0.0,0.0,12,0.00,SCT,OVC,0.00,WeatherDisplay:10.37,2013-04-22 14:55:00,
2013-04-22 10:00:00,59.5,6.8,30.44,North,0,0.0,0.0,12,0.00,SCT,OVC,0.00,WeatherDisplay:10.37,2013-04-22 15:00:00,
2013-04-22 10:05:00,60.1,7.2,30.44,North,0,0.0,0.0,12,0.00,SCT,OVC,0.00,WeatherDisplay:10.37,2013-04-22 15:05:00,
2013-04-22 10:10:00,60.6,7.6,30.44,North,0,0.0,0.0,12,0.00,BKN,OVC,0.00,WeatherDisplay:10.37,2013-04-22 15:10:00,
2013-04-22 10:15:00,61.5,6.4,30.44,North,0,0.0,0.0,11,0.00,BKN,OVC,0.00,WeatherDisplay:10.37,2013-04-22 15:15:00,
2013-04-22 10:20:00,62.2,7.0,30.44,North,0,0.0,0.0,11,0.00,BKN,OVC,0.00,WeatherDisplay:10.37,2013-04-22 15:20:00,
2013-04-22 10:25:00,62.6,7.3,30.44,North,0,0.0,0.0,11,0.00,BKN,OVC,0.00,WeatherDisplay:10.37,2013-04-22 15:25:00,
2013-04-22 10:30:00,63.1,7.7,30.44,North,0,0.0,0.0,11,0.00,BKN,OVC,0.00,WeatherDisplay:10.37,2013-04-22 15:30:00,
2013-04-22 10:35:00,63.1,7.7,30.44,North,0,0.0,0.0,11,0.00,BKN,OVC,0.00,WeatherDisplay:10.37,2013-04-22 15:35:00,
2013-04-22 10:40:00,63.7,8.1,30.44,North,0,0.0,0.0,11,0.00,BKN,OVC,0.00,WeatherDisplay:10.37,2013-04-22 15:40:00,
2013-04-22 10:45:00,63.9,8.2,30.41,North,0,0.0,0.0,11,0.00,BKN,OVC,0.00,WeatherDisplay:10.37,2013-04-22 15:45:00,
2013-04-22 10:50:00,64.0,8.4,30.41,North,0,0.0,0.0,11,0.00,BKN,OVC,0.00,WeatherDisplay:10.37,2013-04-22 15:50:00,
2013-04-22 10:55:00,64.6,6.7,30.41,North,0,0.0,0.0,10,0.00,BKN,OVC,0.00,WeatherDisplay:10.37,2013-04-22 15:55:00,
2013-04-22 11:00:00,65.1,7.1,30.41,North,0,0.0,0.0,10,0.00,BKN,OVC,0.00,WeatherDisplay:10.37,2013-04-22 16:00:00,
2013-04-22 11:05:00,65.7,7.5,30.41,North,0,0.0,0.0,10,0.00,BKN,OVC,0.00,WeatherDisplay:10.37,2013-04-22 16:05:00,
2013-04-22 11:10:00,66.0,7.8,30.41,North,0,0.0,0.0,10,0.00,FEW,OVC,0.00,WeatherDisplay:10.37,2013-04-22 16:10:00,
2013-04-22 11:15:00,66.7,8.3,30.41,North,0,0.0,0.0,10,0.00,FEW,OVC,0.00,WeatherDisplay:10.37,2013-04-22 16:15:00,
2013-04-22 11:20:00,67.3,8.8,30.41,North,0,0.0,0.0,10,0.00,FEW,OVC,0.00,WeatherDisplay:10.37,2013-04-22 16:20:00,
2013-04-22 11:25:00,67.6,9.0,30.41,North,0,0.0,0.0,10,0.00,FEW,OVC,0.00,WeatherDisplay:10.37,2013-04-22 16:25:00,
2013-04-22 11:30:00,68.5,9.7,30.41,North,0,0.0,0.0,10,0.00,FEW,OVC,0.00,WeatherDisplay:10.37,2013-04-22 16:30:00,
2013-04-22 11:35:00,69.1,10.1,30.41,North,0,0.0,0.0,10,0.00,FEW,OVC,0.00,WeatherDisplay:10.37,2013-04-22 16:35:00,
2013-04-22 11:40:00,68.4,9.6,30.41,North,0,0.0,0.0,10,0.00,FEW,OVC,0.00,WeatherDisplay:10.37,2013-04-22 16:40:00,
2013-04-22 11:45:00,67.8,9.2,30.41,North,0,0.0,0.0,10,0.00,FEW,OVC,0.00,WeatherDisplay:10.37,2013-04-22 16:45:00,
2013-04-22 11:50:00,67.8,9.2,30.41,North,0,0.0,0.0,10,0.00,FEW,OVC,0.00,WeatherDisplay:10.37,2013-04-22 16:50:00,
2013-04-22 11:55:00,67.8,9.2,30.41,North,0,0.0,0.0,10,0.00,FEW,OVC,0.00,WeatherDisplay:10.37,2013-04-22 16:55:00,
2013-04-22 12:00:00,68.0,9.3,30.41,North,0,0.0,0.0,10,0.00,FEW,OVC,0.00,WeatherDisplay:10.37,2013-04-22 17:00:00,
2013-04-22 12:05:00,68.5,9.7,30.41,North,0,0.0,0.0,10,0.00,FEW,OVC,0.00,WeatherDisplay:10.37,2013-04-22 17:05:00,
2013-04-22 12:10:00,69.1,10.1,30.41,North,0,0.0,0.0,10,0.00,FEW,OVC,0.00,WeatherDisplay:10.37,2013-04-22 17:10:00,
2013-04-22 12:15:00,69.1,10.1,30.41,North,0,0.0,0.0,10,0.00,FEW,OVC,0.00,WeatherDisplay:10.37,2013-04-22 17:15:00,
2013-04-22 12:20:00,68.4,9.6,30.41,North,0,0.0,0.0,10,0.00,FEW,OVC,0.00,WeatherDisplay:10.37,2013-04-22 17:20:00,
2013-04-22 12:25:00,68.2,9.5,30.41,North,0,0.0,0.0,10,0.00,CLR,OVC,0.00,WeatherDisplay:10.37,2013-04-22 17:25:00,
2013-04-22 12:30:00,68.7,9.9,30.41,North,0,0.0,0.0,10,0.00,CLR,OVC,0.00,WeatherDisplay:10.37,2013-04-22 17:30:00,
2013-04-22 12:35:00,69.3,10.3,30.41,North,0,0.0,0.0,10,0.00,CLR,OVC,0.00,WeatherDisplay:10.37,2013-04-22 17:35:00,
2013-04-22 12:40:00,70.0,8.5,30.41,North,0,0.0,0.0,9,0.00,CLR,OVC,0.00,WeatherDisplay:10.37,2013-04-22 17:40:00,
2013-04-22 12:45:00,70.3,8.8,30.41,North,0,0.0,0.0,9,0.00,CLR,OVC,0.00,WeatherDisplay:10.37,2013-04-22 17:45:00,
2013-04-22 12:50:00,70.7,9.0,30.41,North,0,0.0,0.0,9,0.00,CLR,OVC,0.00,WeatherDisplay:10.37,2013-04-22 17:50:00,
2013-04-22 12:55:00,70.5,8.9,30.41,North,0,0.0,0.0,9,0.00,CLR,OVC,0.00,WeatherDisplay:10.37,2013-04-22 17:55:00,
2013-04-22 13:00:00,70.9,9.2,30.38,North,0,0.0,0.0,9,0.00,CLR,OVC,0.00,WeatherDisplay:10.37,2013-04-22 18:00:00,
2013-04-22 13:05:00,71.1,9.3,30.38,North,0,0.0,0.0,9,0.00,CLR,OVC,0.00,WeatherDisplay:10.37,2013-04-22 18:05:00,
2013-04-22 13:10:00,71.6,9.7,30.38,North,0,0.0,0.0,9,0.00,CLR,OVC,0.00,WeatherDisplay:10.37,2013-04-22 18:10:00,
2013-04-22 13:15:00,71.4,9.6,30.38,North,0,0.0,0.0,9,0.00,CLR,OVC,0.00,WeatherDisplay:10.37,2013-04-22 18:15:00,
2013-04-22 13:20:00,71.4,9.6,30.38,North,0,0.0,0.0,9,0.00,CLR,OVC,0.00,WeatherDisplay:10.37,2013-04-22 18:20:00,
2013-04-22 13:25:00,72.0,10.0,30.38,North,0,0.0,0.0,9,0.00,CLR,OVC,0.00,WeatherDisplay:10.37,2013-04-22 18:25:00,
2013-04-22 13:30:00,72.1,10.1,30.38,North,0,0.0,0.0,9,0.00,CLR,OVC,0.00,WeatherDisplay:10.37,2013-04-22 18:30:00,
2013-04-22 13:35:00,72.0,10.0,30.38,North,0,0.0,0.0,9,0.00,CLR,OVC,0.00,WeatherDisplay:10.37,2013-04-22 18:35:00,
2013-04-22 13:40:00,72.0,10.0,30.38,North,0,0.0,0.0,9,0.00,CLR,OVC,0.00,WeatherDisplay:10.37,2013-04-22 18:40:00,
2013-04-22 13:45:00,72.0,10.0,30.38,North,0,0.0,0.0,9,0.00,CLR,OVC,0.00,WeatherDisplay:10.37,2013-04-22 18:45:00,
2013-04-22 13:50:00,71.8,9.8,30.38,North,0,0.0,0.0,9,0.00,CLR,OVC,0.00,WeatherDisplay:10.37,2013-04-22 18:50:00,
2013-04-22 13:55:00,71.6,9.7,30.38,North,0,0.0,0.0,9,0.00,CLR,OVC,0.00,WeatherDisplay:10.37,2013-04-22 18:55:00,
2013-04-22 14:00:00,72.0,10.0,30.35,North,0,0.0,0.0,9,0.00,CLR,OVC,0.00,WeatherDisplay:10.37,2013-04-22 19:00:00,
2013-04-22 14:05:00,72.3,10.3,30.35,North,0,0.0,0.0,9,0.00,CLR,OVC,0.00,WeatherDisplay:10.37,2013-04-22 19:05:00,
2013-04-22 14:10:00,72.9,10.7,30.35,North,0,0.0,0.0,9,0.00,CLR,OVC,0.00,WeatherDisplay:10.37,2013-04-22 19:10:00,
2013-04-22 14:15:00,73.2,10.9,30.35,North,0,0.0,0.0,9,0.00,CLR,OVC,0.00,WeatherDisplay:10.37,2013-04-22 19:15:00,
2013-04-22 14:20:00,73.4,8.4,30.35,North,0,0.0,0.0,8,0.00,CLR,OVC,0.00,WeatherDisplay:10.37,2013-04-22 19:20:00,
2013-04-22 14:25:00,72.9,10.7,30.35,North,0,0.0,0.0,9,0.00,CLR,OVC,0.00,WeatherDisplay:10.37,2013-04-22 19:25:00,
2013-04-22 14:30:00,72.3,10.3,30.32,North,0,0.0,0.0,9,0.00,CLR,OVC,0.00,WeatherDisplay:10.37,2013-04-22 19:30:00,
2013-04-22 14:35:00,72.5,10.4,30.32,North,0,0.0,0.0,9,0.00,CLR,OVC,0.00,WeatherDisplay:10.37,2013-04-22 19:35:00,
2013-04-22 14:40:00,72.9,10.7,30.32,North,0,0.0,0.0,9,0.00,CLR,OVC,0.00,WeatherDisplay:10.37,2013-04-22 19:40:00,
2013-04-22 14:45:00,73.0,10.8,30.32,North,0,0.0,0.0,9,0.00,CLR,OVC,0.00,WeatherDisplay:10.37,2013-04-22 19:45:00,
2013-04-22 14:50:00,73.2,10.9,30.32,North,0,0.0,0.0,9,0.00,CLR,OVC,0.00,WeatherDisplay:10.37,2013-04-22 19:50:00,
2013-04-22 14:55:00,73.0,10.8,30.32,North,0,0.0,0.0,9,0.00,CLR,OVC,0.00,WeatherDisplay:10.37,2013-04-22 19:55:00,
2013-04-22 15:00:00,72.3,10.3,30.35,North,0,0.0,0.0,9,0.00,CLR,OVC,0.00,WeatherDisplay:10.37,2013-04-22 20:00:00,
2013-04-22 15:05:00,71.6,9.7,30.35,North,0,0.0,0.0,9,0.00,CLR,OVC,0.00,WeatherDisplay:10.37,2013-04-22 20:05:00,
2013-04-22 15:10:00,70.7,9.0,30.35,North,0,0.0,0.0,9,0.00,CLR,OVC,0.00,WeatherDisplay:10.37,2013-04-22 20:10:00,
2013-04-22 15:15:00,70.2,8.6,30.32,North,0,0.0,0.0,9,0.00,CLR,OVC,0.00,WeatherDisplay:10.37,2013-04-22 20:15:00,
2013-04-22 15:20:00,70.2,8.6,30.32,North,0,0.0,0.0,9,0.00,CLR,OVC,0.00,WeatherDisplay:10.37,2013-04-22 20:20:00,
2013-04-22 15:25:00,70.3,8.8,30.32,North,0,0.0,0.0,9,0.00,CLR,OVC,0.00,WeatherDisplay:10.37,2013-04-22 20:25:00,
2013-04-22 15:30:00,70.9,9.2,30.32,North,0,0.0,0.0,9,0.00,CLR,OVC,0.00,WeatherDisplay:10.37,2013-04-22 20:30:00,
2013-04-22 15:35:00,70.7,9.0,30.32,North,0,0.0,0.0,9,0.00,CLR,OVC,0.00,WeatherDisplay:10.37,2013-04-22 20:35:00,
2013-04-22 15:40:00,70.7,9.0,30.32,North,0,0.0,0.0,9,0.00,CLR,OVC,0.00,WeatherDisplay:10.37,2013-04-22 20:40:00,
2013-04-22 15:45:00,71.1,9.3,30.32,North,0,0.0,0.0,9,0.00,CLR,OVC,0.00,WeatherDisplay:10.37,2013-04-22 20:45:00,
2013-04-22 15:50:00,71.6,9.7,30.32,North,0,0.0,0.0,9,0.00,CLR,OVC,0.00,WeatherDisplay:10.37,2013-04-22 20:50:00,
2013-04-22 15:55:00,71.1,9.3,30.32,North,0,0.0,0.0,9,0.00,CLR,OVC,0.00,WeatherDisplay:10.37,2013-04-22 20:55:00,
2013-04-22 16:00:00,70.5,8.9,30.30,North,0,0.0,0.0,9,0.00,CLR,OVC,0.00,WeatherDisplay:10.37,2013-04-22 21:00:00,
2013-04-22 16:05:00,69.6,10.6,30.30,North,0,0.0,0.0,10,0.00,CLR,OVC,0.00,WeatherDisplay:10.37,2013-04-22 21:05:00,
2013-04-22 16:10:00,69.6,10.6,30.30,North,0,0.0,0.0,10,0.00,CLR,OVC,0.00,WeatherDisplay:10.37,2013-04-22 21:10:00,
2013-04-22 16:15:00,69.8,8.3,30.30,North,0,0.0,0.0,9,0.00,CLR,OVC,0.00,WeatherDisplay:10.37,2013-04-22 21:15:00,
2013-04-22 16:20:00,70.3,8.8,30.30,North,0,0.0,0.0,9,0.00,CLR,OVC,0.00,WeatherDisplay:10.37,2013-04-22 21:20:00,
2013-04-22 16:25:00,71.1,9.3,30.30,North,0,0.0,0.0,9,0.00,CLR,OVC,0.00,WeatherDisplay:10.37,2013-04-22 21:25:00,
2013-04-22 16:30:00,71.2,9.4,30.30,North,0,0.0,0.0,9,0.00,CLR,OVC,0.00,WeatherDisplay:10.37,2013-04-22 21:30:00,
2013-04-22 16:35:00,71.1,9.3,30.30,North,0,0.0,0.0,9,0.00,CLR,OVC,0.00,WeatherDisplay:10.37,2013-04-22 21:35:00,
2013-04-22 16:40:00,70.5,8.9,30.30,North,0,0.0,0.0,9,0.00,CLR,OVC,0.00,WeatherDisplay:10.37,2013-04-22 21:40:00,
2013-04-22 16:45:00,70.5,8.9,30.30,North,0,0.0,0.0,9,0.00,CLR,OVC,0.00,WeatherDisplay:10.37,2013-04-22 21:45:00,
2013-04-22 16:50:00,71.1,9.3,30.30,North,0,0.0,0.0,9,0.00,CLR,OVC,0.00,WeatherDisplay:10.37,2013-04-22 21:50:00,
2013-04-22 16:55:00,71.1,9.3,30.30,North,0,0.0,0.0,9,0.00,CLR,OVC,0.00,WeatherDisplay:10.37,2013-04-22 21:55:00,
2013-04-22 17:00:00,70.7,9.0,30.30,North,0,0.0,0.0,9,0.00,CLR,OVC,0.00,WeatherDisplay:10.37,2013-04-22 22:00:00,
2013-04-22 17:05:00,70.3,8.8,30.30,North,0,0.0,0.0,9,0.00,CLR,OVC,0.00,WeatherDisplay:10.37,2013-04-22 22:05:00,
2013-04-22 17:10:00,70.0,8.5,30.30,North,0,0.0,0.0,9,0.00,CLR,OVC,0.00,WeatherDisplay:10.37,2013-04-22 22:10:00,
2013-04-22 17:15:00,69.4,10.4,30.30,North,0,0.0,0.0,10,0.00,CLR,OVC,0.00,WeatherDisplay:10.37,2013-04-22 22:15:00,
2013-04-22 17:20:00,69.1,10.1,30.30,North,0,0.0,0.0,10,0.00,CLR,OVC,0.00,WeatherDisplay:10.37,2013-04-22 22:20:00,
2013-04-22 17:25:00,69.1,10.1,30.30,North,0,0.0,0.0,10,0.00,CLR,OVC,0.00,WeatherDisplay:10.37,2013-04-22 22:25:00,
2013-04-22 17:30:00,69.3,10.3,30.30,North,0,0.0,0.0,10,0.00,CLR,OVC,0.00,WeatherDisplay:10.37,2013-04-22 22:30:00,
2013-04-22 17:35:00,68.9,10.0,30.30,North,0,0.0,0.0,10,0.00,CLR,OVC,0.00,WeatherDisplay:10.37,2013-04-22 22:35:00,
2013-04-22 17:40:00,68.5,9.7,30.30,North,0,0.0,0.0,10,0.00,CLR,OVC,0.00,WeatherDisplay:10.37,2013-04-22 22:40:00,
2013-04-22 17:45:00,68.0,9.3,30.30,North,0,0.0,0.0,10,0.00,CLR,OVC,0.00,WeatherDisplay:10.37,2013-04-22 22:45:00,
2013-04-22 17:50:00,67.8,9.2,30.30,North,0,0.0,0.0,10,0.00,CLR,OVC,0.00,WeatherDisplay:10.37,2013-04-22 22:50:00,
2013-04-22 17:55:00,67.5,8.9,30.30,North,0,0.0,0.0,10,0.00,CLR,OVC,0.00,WeatherDisplay:10.37,2013-04-22 22:55:00,
2013-04-22 18:00:00,67.5,8.9,30.26,North,0,0.0,0.0,10,0.00,CLR,OVC,0.00,WeatherDisplay:10.37,2013-04-22 23:00:00,
2013-04-22 18:05:00,67.3,8.8,30.26,North,0,0.0,0.0,10,0.00,CLR,OVC,0.00,WeatherDisplay:10.37,2013-04-22 23:05:00,
2013-04-22 18:10:00,66.9,8.5,30.26,North,0,0.0,0.0,10,0.00,BKN,OVC,0.00,WeatherDisplay:10.37,2013-04-22 23:10:00,
2013-04-22 18:15:00,66.9,8.5,30.26,North,0,0.0,0.0,10,0.00,BKN,OVC,0.00,WeatherDisplay:10.37,2013-04-22 23:15:00,
2013-04-22 18:20:00,66.7,8.3,30.26,North,0,0.0,0.0,10,0.00,BKN,OVC,0.00,WeatherDisplay:10.37,2013-04-22 23:20:00,
2013-04-22 18:25:00,66.7,8.3,30.26,North,0,0.0,0.0,10,0.00,BKN,OVC,0.00,WeatherDisplay:10.37,2013-04-22 23:25:00,
2013-04-22 18:30:00,66.6,8.2,30.26,North,0,0.0,0.0,10,0.00,BKN,OVC,0.00,WeatherDisplay:10.37,2013-04-22 23:30:00,
2013-04-22 18:35:00,66.2,7.9,30.26,North,0,0.0,0.0,10,0.00,BKN,OVC,0.00,WeatherDisplay:10.37,2013-04-22 23:35:00,
2013-04-22 18:40:00,66.0,7.8,30.26,North,0,0.0,0.0,10,0.00,BKN,OVC,0.00,WeatherDisplay:10.37,2013-04-22 23:40:00,
2013-04-22 18:45:00,65.8,7.7,30.26,North,0,0.0,0.0,10,0.00,BKN,OVC,0.00,WeatherDisplay:10.37,2013-04-22 23:45:00,
2013-04-22 18:50:00,65.7,7.5,30.26,North,0,0.0,0.0,10,0.00,BKN,OVC,0.00,WeatherDisplay:10.37,2013-04-22 23:50:00,
2013-04-22 18:55:00,65.5,7.4,30.26,North,0,0.0,0.0,10,0.00,BKN,OVC,0.00,WeatherDisplay:10.37,2013-04-22 23:55:00,
2013-04-22 19:00:00,65.3,7.2,30.26,North,0,0.0,0.0,10,0.00,BKN,OVC,0.00,WeatherDisplay:10.37,2013-04-23 00:00:00,
2013-04-22 19:05:00,65.1,7.1,30.26,North,0,0.0,0.0,10,0.00,BKN,OVC,0.00,WeatherDisplay:10.37,2013-04-23 00:05:00,
2013-04-22 19:10:00,64.8,6.8,30.26,North,0,0.0,0.0,10,0.00,FEW,OVC,0.00,WeatherDisplay:10.37,2013-04-23 00:10:00,
2013-04-22 19:15:00,64.6,6.7,30.26,North,0,0.0,0.0,10,0.00,FEW,OVC,0.00,WeatherDisplay:10.37,2013-04-23 00:15:00,
2013-04-22 19:20:00,64.4,6.6,30.26,North,0,0.0,0.0,10,0.00,FEW,OVC,0.00,WeatherDisplay:10.37,2013-04-23 00:20:00,
2013-04-22 19:25:00,64.2,8.5,30.26,North,0,0.0,0.0,11,0.00,FEW,OVC,0.00,WeatherDisplay:10.37,2013-04-23 00:25:00,
2013-04-22 19:31:00,63.9,8.2,30.26,North,0,0.0,0.0,11,0.00,FEW,OVC,0.00,WeatherDisplay:10.37,2013-04-23 00:31:00,
2013-04-22 19:36:00,63.7,8.1,30.26,North,0,0.0,0.0,11,0.00,FEW,OVC,0.00,WeatherDisplay:10.37,2013-04-23 00:36:00,
2013-04-22 19:41:00,63.3,7.8,30.26,North,0,0.0,0.0,11,0.00,FEW,OVC,0.00,WeatherDisplay:10.37,2013-04-23 00:41:00,
2013-04-22 19:46:00,63.1,7.7,30.26,North,0,0.0,0.0,11,0.00,FEW,OVC,0.00,WeatherDisplay:10.37,2013-04-23 00:46:00,
2013-04-22 19:51:00,63.0,7.5,30.26,North,0,0.0,0.0,11,0.00,FEW,OVC,0.00,WeatherDisplay:10.37,2013-04-23 00:51:00,
2013-04-22 19:56:00,62.8,7.4,30.26,North,0,0.0,0.0,11,0.00,FEW,OVC,0.00,WeatherDisplay:10.37,2013-04-23 00:56:00,
2013-04-22 20:01:00,62.6,7.3,30.26,North,0,0.0,0.0,11,0.00,FEW,OVC,0.00,WeatherDisplay:10.37,2013-04-23 01:01:00,
2013-04-22 20:06:00,62.4,7.1,30.26,North,0,0.0,0.0,11,0.00,FEW,OVC,0.00,WeatherDisplay:10.37,2013-04-23 01:06:00,
2013-04-22 20:11:00,62.2,7.0,30.26,North,0,0.0,0.0,11,0.00,FEW,OVC,0.00,WeatherDisplay:10.37,2013-04-23 01:11:00,
2013-04-22 20:16:00,62.2,7.0,30.26,North,0,0.0,0.0,11,0.00,FEW,OVC,0.00,WeatherDisplay:10.37,2013-04-23 01:16:00,
2013-04-22 20:21:00,62.1,6.8,30.26,North,0,0.0,0.0,11,0.00,FEW,OVC,0.00,WeatherDisplay:10.37,2013-04-23 01:21:00,
2013-04-22 20:26:00,61.9,6.7,30.26,North,0,0.0,0.0,11,0.00,FEW,OVC,0.00,WeatherDisplay:10.37,2013-04-23 01:26:00,
2013-04-22 20:31:00,61.7,6.6,30.26,North,0,0.0,0.0,11,0.00,FEW,OVC,0.00,WeatherDisplay:10.37,2013-04-23 01:31:00,
2013-04-22 20:36:00,61.5,6.4,30.26,North,0,0.0,0.0,11,0.00,FEW,OVC,0.00,WeatherDisplay:10.37,2013-04-23 01:36:00,
2013-04-22 20:41:00,61.3,6.3,30.26,North,0,0.0,0.0,11,0.00,FEW,OVC,0.00,WeatherDisplay:10.37,2013-04-23 01:41:00,
2013-04-22 20:46:00,61.0,6.0,30.30,North,0,0.0,0.0,11,0.00,FEW,OVC,0.00,WeatherDisplay:10.37,2013-04-23 01:46:00,
2013-04-22 20:51:00,61.0,6.0,30.30,North,0,0.0,0.0,11,0.00,FEW,OVC,0.00,WeatherDisplay:10.37,2013-04-23 01:51:00,
2013-04-22 20:56:00,60.6,7.6,30.30,North,0,0.0,0.0,12,0.00,FEW,OVC,0.00,WeatherDisplay:10.37,2013-04-23 01:56:00,
2013-04-22 21:01:00,60.4,7.5,30.30,North,0,0.0,0.0,12,0.00,FEW,OVC,0.00,WeatherDisplay:10.37,2013-04-23 02:01:00,
2013-04-22 21:06:00,60.4,7.5,30.30,North,0,0.0,0.0,12,0.00,FEW,OVC,0.00,WeatherDisplay:10.37,2013-04-23 02:06:00,
2013-04-22 21:11:00,60.4,7.5,30.30,North,0,0.0,0.0,12,0.00,FEW,OVC,0.00,WeatherDisplay:10.37,2013-04-23 02:11:00,
2013-04-22 21:16:00,60.3,7.4,30.30,North,0,0.0,0.0,12,0.00,FEW,OVC,0.00,WeatherDisplay:10.37,2013-04-23 02:16:00,
2013-04-22 21:21:00,60.3,7.4,30.30,North,0,0.0,0.0,12,0.00,FEW,OVC,0.00,WeatherDisplay:10.37,2013-04-23 02:21:00,
2013-04-22 21:26:00,60.1,7.2,30.30,North,0,0.0,0.0,12,0.00,FEW,OVC,0.00,WeatherDisplay:10.37,2013-04-23 02:26:00,
2013-04-22 21:31:00,60.1,7.2,30.26,North,0,0.0,0.0,12,0.00,FEW,OVC,0.00,WeatherDisplay:10.37,2013-04-23 02:31:00,
2013-04-22 21:36:00,60.1,7.2,30.26,North,0,0.0,0.0,12,0.00,FEW,OVC,0.00,WeatherDisplay:10.37,2013-04-23 02:36:00,
2013-04-22 21:41:00,59.9,7.1,30.26,North,0,0.0,0.0,12,0.00,FEW,OVC,0.00,WeatherDisplay:10.37,2013-04-23 02:41:00,
2013-04-22 21:46:00,59.9,7.1,30.30,North,0,0.0,0.0,12,0.00,FEW,OVC,0.00,WeatherDisplay:10.37,2013-04-23 02:46:00,
2013-04-22 21:51:00,59.7,6.9,30.30,North,0,0.0,0.0,12,0.00,FEW,OVC,0.00,WeatherDisplay:10.37,2013-04-23 02:51:00,
2013-04-22 21:56:00,59.7,6.9,30.30,North,0,0.0,0.0,12,0.00,FEW,OVC,0.00,WeatherDisplay:10.37,2013-04-23 02:56:00,
2013-04-22 22:01:00,59.7,6.9,30.30,North,0,0.0,0.0,12,0.00,FEW,OVC,0.00,WeatherDisplay:10.37,2013-04-23 03:01:00,
2013-04-22 22:06:00,59.7,6.9,30.30,North,0,0.0,0.0,12,0.00,FEW,OVC,0.00,WeatherDisplay:10.37,2013-04-23 03:06:00,
2013-04-22 22:11:00,59.5,6.8,30.30,North,0,0.0,0.0,12,0.00,BKN,OVC,0.00,WeatherDisplay:10.37,2013-04-23 03:11:00,
2013-04-22 22:16:00,59.5,6.8,30.30,North,0,0.0,0.0,12,0.00,BKN,OVC,0.00,WeatherDisplay:10.37,2013-04-23 03:16:00,
2013-04-22 22:21:00,59.5,6.8,30.30,North,0,0.0,0.0,12,0.00,BKN,OVC,0.00,WeatherDisplay:10.37,2013-04-23 03:21:00,
2013-04-22 22:26:00,59.4,6.6,30.30,North,0,0.0,0.0,12,0.00,BKN,OVC,0.00,WeatherDisplay:10.37,2013-04-23 03:26:00,
2013-04-22 22:31:00,59.2,6.5,30.30,North,0,0.0,0.0,12,0.00,BKN,OVC,0.00,WeatherDisplay:10.37,2013-04-23 03:31:00,
2013-04-22 22:36:00,58.8,6.2,30.30,North,0,0.0,0.0,12,0.00,BKN,OVC,0.00,WeatherDisplay:10.37,2013-04-23 03:36:00,
2013-04-22 22:41:00,58.8,6.2,30.30,North,0,0.0,0.0,12,0.00,BKN,OVC,0.00,WeatherDisplay:10.37,2013-04-23 03:41:00,
2013-04-22 22:46:00,59.0,6.4,30.30,North,0,0.0,0.0,12,0.00,BKN,OVC,0.00,WeatherDisplay:10.37,2013-04-23 03:46:00,
2013-04-22 22:51:00,59.0,6.4,30.30,North,0,0.0,0.0,12,0.00,BKN,OVC,0.00,WeatherDisplay:10.37,2013-04-23 03:51:00,
2013-04-22 22:56:00,58.8,6.2,30.30,North,0,0.0,0.0,12,0.00,BKN,OVC,0.00,WeatherDisplay:10.37,2013-04-23 03:56:00,
2013-04-22 23:01:00,58.5,5.9,30.32,North,0,0.0,0.0,12,0.00,BKN,OVC,0.00,WeatherDisplay:10.37,2013-04-23 04:01:00,
2013-04-22 23:02:00,58.5,5.9,30.32,North,0,0.0,0.0,12,0.00,BKN,OVC,0.00,WeatherDisplay:10.37,2013-04-23 04:02:00,
2013-04-22 23:04:00,58.1,5.7,30.32,North,0,0.0,0.0,12,0.00,BKN,OVC,0.00,WeatherDisplay:10.37,2013-04-23 04:04:00,
2013-04-22 23:09:00,57.4,8.5,30.32,North,0,0.0,0.0,14,0.00,-RA,OVC,0.00,WeatherDisplay:10.37,2013-04-23 04:09:00,
2013-04-22 23:14:00,56.8,9.6,30.32,North,0,0.0,0.0,15,0.00,-RA,OVC,0.00,WeatherDisplay:10.37,2013-04-23 04:14:00,
2013-04-22 23:19:00,56.3,12.0,30.32,North,0,0.0,0.0,17,0.00,-RA,OVC,0.00,WeatherDisplay:10.37,2013-04-23 04:19:00,
2013-04-22 23:24:00,55.9,15.4,30.32,North,0,0.0,0.0,20,0.00,-RA,OVC,0.00,WeatherDisplay:10.37,2013-04-23 04:24:00,
2013-04-22 23:29:00,55.4,17.1,30.32,North,0,0.0,0.0,22,0.00,-RA,OVC,0.00,WeatherDisplay:10.37,2013-04-23 04:29:00,
2013-04-22 23:34:00,54.9,20.6,30.32,North,0,0.0,0.0,26,0.00,-RA,OVC,0.00,WeatherDisplay:10.37,2013-04-23 04:34:00,
2013-04-22 23:39:00,54.5,20.3,30.32,North,0,0.0,0.0,26,0.00,-RA,OVC,0.00,WeatherDisplay:10.37,2013-04-23 04:39:00,
2013-04-22 23:44:00,54.3,21.0,30.30,North,0,0.0,0.0,27,0.00,-RA,OVC,0.00,WeatherDisplay:10.37,2013-04-23 04:44:00,
2013-04-22 23:49:00,54.1,20.8,30.30,North,0,0.0,0.0,27,0.00,-RA,OVC,0.00,WeatherDisplay:10.37,2013-04-23 04:49:00,
2013-04-22 23:54:00,54.0,21.6,30.30,North,0,0.0,0.0,28,0.00,-RA,OVC,0.00,WeatherDisplay:10.37,2013-04-23 04:54:00,
2013-04-22 23:59:00,53.8,22.2,30.30,North,0,0.0,0.0,29,0.00,-RA,OVC,0.00,WeatherDisplay:10.37,2013-04-23 04:59:00,